CW0210 Weather Reports


time (UTC)temp
C
wind
direction
speed
KPH
gust
KPH
rain 1hr
cm
rain 24hr
cm
rain mn
cm
humidity
%
barometer
mb
20260505063026 12 221 0.0 0.0 0.00 0.00 0.00 74 1007.9
20260505061523 12 229 0.0 0.0 0.00 0.00 0.00 73 1008.0
20260505060028 12 230 0.0 0.0 0.00 0.00 0.00 72 1008.0
20260505054532 12 219 0.0 0.0 0.00 0.00 0.00 71 1008.0
20260505053017 13 253 0.0 0.0 0.00 0.00 0.00 70 1008.0
20260505051514 13 252 1.6 0.0 0.00 0.00 0.00 69 1008.0
20260505041508 13 262 1.6 0.0 0.00 0.00 0.00 65 1008.2
20260505040007 14 246 1.6 0.0 0.00 0.00 0.00 64 1008.1
20260505034506 14 252 1.6 0.0 0.00 0.00 0.00 63 1008.0
20260505033013 14 255 1.6 0.0 0.00 0.00 0.00 62 1008.0
20260505031505 14 230 1.6 0.0 0.00 0.00 0.00 60 1008.0
20260505030004 15 234 1.6 0.0 0.00 0.00 0.00 59 1008.0
20260505024504 15 215 1.6 0.0 0.00 0.00 0.00 58 1008.0
20260505023003 15 211 1.6 0.0 0.00 0.00 0.00 56 1008.1
20260505021503 15 175 1.6 0.0 0.00 0.00 0.00 55 1008.1
20260505020002 15 100 1.6 0.0 0.00 0.00 0.00 53 1008.0
20260505014507 16 225 1.6 0.0 0.00 0.00 0.00 52 1007.9
20260505013001 16 227 1.6 0.0 0.00 0.00 0.00 52 1007.7
20260505011501 16 223 1.6 0.0 0.00 0.00 0.00 51 1007.5
20260505010103 16 113 1.6 0.0 0.00 0.00 0.00 50 1007.3
20260505004602 17 211 1.6 0.0 0.00 0.00 0.00 49 1007.0
20260505003103 17 204 1.6 0.0 0.00 0.00 0.00 48 1006.7
20260505001559 18 251 1.6 0.0 0.00 0.00 0.00 47 1006.2
20260504234622 18 179 1.6 0.0 0.00 0.00 0.00 45 1005.6
20260504233058 19 230 3.2 0.0 0.00 0.00 0.00 44 1005.4
20260504231605 20 244 1.6 0.0 0.00 0.00 0.00 43 1005.1
20260504230056 20 202 1.6 0.0 0.00 0.00 0.00 41 1004.7
20260504224605 21 227 4.8 0.0 0.00 0.00 0.00 37 1004.4
20260504223054 22 256 1.6 0.0 0.00 0.00 0.00 36 1004.2
20260504221603 22 174 4.8 0.0 0.00 0.00 0.00 33 1004.0
20260504220055 22 175 3.2 0.0 0.00 0.00 0.00 31 1004.1
20260504214555 22 235 4.8 0.0 0.00 0.00 0.00 31 1004.2
20260504213101 23 244 3.2 0.0 0.00 0.00 0.00 30 1004.0
20260504211550 23 259 3.2 0.0 0.00 0.00 0.00 29 1004.2
20260504210056 23 263 3.2 0.0 0.00 0.00 0.00 29 1004.0
20260504204625 23 159 8.0 0.0 0.00 0.00 0.00 29 1004.1
20260504203049 23 254 4.8 0.0 0.00 0.00 0.00 28 1004.2
20260504201546 23 240 6.4 0.0 0.00 0.00 0.00 28 1004.2
20260504200048 23 219 6.4 0.0 0.00 0.00 0.00 28 1004.4
20260504194550 23 208 8.0 0.0 0.00 0.00 0.00 27 1004.3
20260504193045 23 248 4.8 0.0 0.00 0.00 0.00 27 1004.5
20260504191543 23 232 6.4 0.0 0.00 0.00 0.00 27 1004.5
20260504190047 23 162 4.8 0.0 0.00 0.00 0.00 28 1004.5
20260504184548 22 208 6.4 0.0 0.00 0.00 0.00 27 1004.7
20260504183037 23 164 6.4 0.0 0.00 0.00 0.00 28 1004.7
20260504181534 22 198 4.8 0.0 0.00 0.00 0.00 29 1004.9
20260504180032 22 115 8.0 0.0 0.00 0.00 0.00 30 1005.0
20260504174529 22 285 8.0 0.0 0.00 0.00 0.00 30 1005.2
20260504173026 21 172 9.7 0.0 0.00 0.00 0.00 30 1005.4
20260504171537 21 248 8.0 0.0 0.00 0.00 0.00 31 1005.2
20260504081555 7 279 0.0 0.0 0.00 0.00 0.00 63 1008.1